カタログに戻る

STARLINK-6193

運用中通信VLEO
NORAD 56904·PAYLOAD·🇺🇸 United States

打ち上げ Jun 12, 2023 から Cape Canaveral Space Force Station

Loading…

次のパス (今後24時間)

TLE

最新Source: CelesTrak SupGP

元期: Sep 14, 2026, 21:35 UTC

1 56904C 23083AE  26257.89979167  .00035526  00000+0  12868-2 0  2572
2 56904  43.0027  82.2205 0001290 266.6319 115.3224 15.27558880    14

AllMySatでSTARLINK-6193をリアルタイム追跡

Download on the App Store